Location: Goettingen
(51.5300°N, 9.9433°E)
Time: 20:12:02
(UTC+02:00)

X-37B - Pass Details

Date: 03 October 2021
Orbit: 385 x 389 km, 45.0° (Epoch: 13 October)

Event Time Altitude Azimuth Distance (km) Brightness Sun altitude
Exits shadow 05:57:24 11° 197° (SSW) 1,329 3.0 -14.3°
Drops below altitude 10° 05:58:08 10° 183° (S) 1,409 3.3 -14.2°
Sets 06:01:16 0° 149° (SSE) 2,261 4.7 -13.7°
